Погода в Лизунове

Россия / Владимирская область     56°17′49″N   38°29′36″E
В апреле 2022 года жителям России запретили посещать сайт meteo.paraplan.net по решению Генеральной прокуратуры. Аудитория сайта уменьшилась в 10 раз. Владельцы сайта не видят смысла в поддержке погодного сервера в таких условиях. Сайт будет закрыт в октябре.
темп.,
°C
ветер,
м/с
пор.,
м/с
влажн.,
%
обл.,
%
осадки,
мм/ч
давл.,
гПа
погр.,
м
5 октября, ср
ср500:00+7ююв4109183 0.1 1010656
03:00+7ююв2790100 0.1 1010397
06:00+7ю2590100 0.4 1010319
09:00+7ююз358590 0.6 1011579
12:00+7ююз2491100 0.2 1012368
15:00+7зюз258996 0.5 1013546
18:00+6зсз369095 0.2 1015348
21:00+5з269489 0.3 1016224
6 октября, чт
чт600:00+3з279739 0.0 1017176
03:00+3з26978 0.0 1018131
06:00+3з229714 0.0 101819
09:00+6зюз249025 0.0 1018232
12:00+10зюз347324 0.0 1017757
15:00+11юз357899 0.0 1017783
18:00+9ю3989100 0.0 1016373
21:00+9юз41194100 0.0 1015650
7 октября, пт
пт700:00+9юз4129766 0.0 1014469
03:00+10з51392100 0.0 1013702
06:00+10зсз5128873 0.0 1015797
09:00+10зсз51180100 0.1 10171335
12:00+12з61169100 0.0 10181620
15:00+12з612675 0.1 10191403
18:00+10з512750 0.0 1020628
21:00+9з412835 0.0 1022560
8 октября, сб
сб800:00+7зюз289567 0.0 1023222
03:00+6зюз2796100 0.0 1023187
06:00+6юз3896100 0.0 1023204
09:00+9юз498657 0.0 1023337
12:00+13юз47685 0.0 1022745
15:00+14юз486210 0.0 1020986
18:00+10ююз31077100 0.0 1019317
21:00+10ююз41381100 0.0 1018547
9 октября, вс
вс900:00+9ююз41381100 0.0 1017571
03:00+8ююз41384100 0.0 1016479
06:00+8ююз41285100 0.0 1015480
09:00+9ююз41180100 0.0 1015562
12:00+11юз4775100 0.0 1014798
15:00+9зюз3893100 0.9 1015453
18:00+9юз2896100 1.7 1016316
21:00+8зсз3992100 1.9 1017399